sat.trackr.live / text

‹ back to catalog

STARLINK-32185

NORAD 60341 · 2024-136N

PAYLOAD ACTIVE UNKNOWN

§ Identity

Operator
Country
US
Launch date
2024-08-02
Launch site
AFETR
Launch vehicle
Mass (kg)
RCS (m²)

Purposes: comms

External: N2YO · Heavens-Above · Gunter

§ Orbital elements

Epoch: 2026-09-21T06:00:15.291936Z

Period
93.85 min
Inclination
53.1571°
Eccentricity
0.0001351
Mean motion
15.34318061 rev/d
Perigee alt
462.0 km
Apogee alt
463.9 km
Semi-major
6,841.1 km
B*
4.9863e-4
RAAN
246.0374°
Arg perigee
111.3880°
Mean anomaly
248.7267°
Rev number
11,962

§ Raw data

STARLINK-321851 60341U 24136N   26264.25017699  .00016464  00000+0  49863-3 0  99922 60341  53.1571 246.0374 0001351 111.3880 248.7267 15.34318061119623

JSON: /api/v1/satellites/60341 · /tle

For live sub-satellite position, see the globe view (requires WebGL).

§ Visibility from observer

Set your observer location to see the next 7 days of passes ≥ 10°. The values pass through the URL so the page stays shareable.

No JS? Fill the form by hand. The geolocation button needs JavaScript.